This is the latest recevied weather packets stored in our database for station/object W0RMT-13. If no packets are shown the sender has not sent any weather packets the latest 10 day(s).
| Time | Temp. | Humidity | Pressure | Rain* | Wind** | Luminosity | Snow |
|---|---|---|---|---|---|---|---|
| 1777775632 | 13.89° C | 21% | 1017 hPa | 0 mm | - | 0 W/m² | - |
| 1777775018 | 14.44° C | 21% | 1016.7 hPa | 0 mm | - | 0 W/m² | - |
| 1777774332 | 15.56° C | 20% | 1016.7 hPa | 0 mm | - | 0 W/m² | - |
| 1777773657 | 16.11° C | 18% | 1016.7 hPa | 0 mm | - | 0 W/m² | - |
| 1777773009 | 16.67° C | 16% | 1016.7 hPa | 0 mm | - | 0 W/m² | - |
| 1777772361 | 17.78° C | 15% | 1016.7 hPa | 0 mm | - | 2 W/m² | - |
| 1777771686 | 18.89° C | 15% | 1016.2 hPa | 0 mm | - | 6 W/m² | - |
| 1777771031 | 19.44° C | 14% | 1016.2 hPa | 0 mm | - | 8 W/m² | - |
| 1777770334 | 19.44° C | 12% | 1016.2 hPa | 0 mm | - | 11 W/m² | - |
| 1777769670 | 19.44° C | 12% | 1016.2 hPa | 0 mm | - | 16 W/m² | - |
| 1777769039 | 20° C | 12% | 1016.2 hPa | 0 mm | - | 18 W/m² | - |
| 1777768376 | 20° C | 12% | 1016.2 hPa | 0 mm | - | 19 W/m² | - |
| 1777767771 | 20.56° C | 12% | 1016.7 hPa | 0 mm | - | 21 W/m² | - |
| 1777767087 | 20.56° C | 13% | 1016.7 hPa | 0 mm | - | 23 W/m² | - |
| 1777766494 | 20.56° C | 13% | 1016.2 hPa | 0 mm | - | 25 W/m² | - |
| 1777765804 | 21.11° C | 13% | 1016.7 hPa | 0 mm | - | 29 W/m² | - |
| 1777765141 | 21.11° C | 12% | 1016.2 hPa | 0 mm | - | 29 W/m² | - |
| 1777764521 | 21.67° C | 13% | 1016.7 hPa | 0 mm | - | 31 W/m² | - |
| 1777763867 | 22.78° C | 14% | 1016.7 hPa | 0 mm | - | 32 W/m² | - |
| 1777763197 | 23.33° C | 13% | 1016.7 hPa | 0 mm | - | 36 W/m² | - |
| 1777762543 | 23.89° C | 12% | 1016.7 hPa | 0 mm | - | 512 W/m² | - |
| 1777761937 | 23.89° C | 12% | 1016.7 hPa | 0 mm | - | 525 W/m² | - |
| 1777761291 | 23.33° C | 12% | 1016.7 hPa | 0 mm | - | 539 W/m² | - |
| 1777760647 | 23.33° C | 13% | 1017 hPa | 0 mm | - | 545 W/m² | - |
| 1777760026 | 23.33° C | 12% | 1017 hPa | 0 mm | - | 553 W/m² | - |
* Rain latest hour (hover to see other rain measurements)
** Current wind speed in m/s (hover to see current wind gust speed)